VODKAPOKER | Poker Online Indonesia Terbesar Dan Terpercaya

Jackpot

Texas Poker Multi Jackpot System

Kini Telah hadir Jackpot SUPER ROYAL FLUSH

Kini Telah hadir Jackpot 2000 (khusus table VIP keatas).

Ikutilah global jackpot yang tersedia di system kami, dengan system jackpot terbaru dan pertama di indonesia, anda dapat membeli jackpot dengan harga 100 rupiah saja dan menangkan hadiahnya hingga puluhan juta rupiah.

Jackpot bukanlah suatu keharusan untuk dibeli, namun kami memberikan suatu fitur tambahan untuk member tercinta dari www.vodkapoker88.com.

Terdapat tiga pilihan harga jackpot yang bisa anda beli yaitu :100,500,1000 dan 2000(khusus table VIP Keatas) rupiah.

Hadiah dari Multi jackpot system www.vodkapoker88.com

  1. full house x 10 harga jackpot yang anda beli.
      (contoh:anda membeli 1000 maka:1000 X10 = 10.000)
  2. four of kind x 250 harga jackpot yang anda beli
      (contoh:anda membeli 1000 maka:1000 X250 = 250.000)
  3. Straight flush x 1200
      (contoh:anda membeli 1000 maka:1000 X1200 = 1.200.000)
  4. Royal flush x 10000 harga jackpot yang anda beli
      (contoh:anda membeli 1000 maka:1000 X10000 = 10.000.000)
  5. SUPER ROYAL FLUSH x 30000 harga jackpot yang anda beli
      (contoh:anda membeli 1000 maka:1000 X30000 = 30.000.000)

Kondisi kartu

  1. full house adalah kondisi kartu dimana kartu anda dan kartu tengah dengan total 7 kartu bisa mendapatkan nilai 5 kartu dengan kombinasi 1 tris(three of kind) dan 1 pair, contoh 3 kartu 10 dan 2 kartu 5
  2. Four of kind adalah kondisi kartu dimana kartu anda dan kartu tengah dengan total 7 kartu bisa mendapatkan nilai 5 kartu dengan kombinasi 4 kartu yang sama jumlah dan 1 kartu apapun juga contoh anda mendapatkan 4 buah kartu angka 3 dan 1 kartu apapun.
  3. Staright flush adalah kondisi kartu dimana kartu anda dan kartu tengah dengan total 7 kartu bisa mendapatkan nilai 5 kartu dengan kombinasi seri / staright dengan kembang yang sama contoh : urutan kartu dari angka 5, 6, 7, 8 , 9 10 dengan kembang yg sama misalnya as hati
  4. Royal flush adalah kondisi kartu dimana kartu anda dan kartu tengah dengan total 7 kartu bisa mendapatkan nilai 5 kartu dengan kombinasi seri / staright dengan kembang yang sama tetapi kartu tersebut haruslah dimulai dari 10. contoh 10, Queen, Jack, King dan aces dengan kembang yang sama
  5. Super Royal flush adalah kondisi kartu dimana Kedua kartu anda digabung dengan 3 kartu pertama meja haruslah royal flush. contoh kartu anda 10,Queen kembang sama dan 3 kartu pertama meja adalah Jack, King dan aces dengan kembang yang sama

Demikian adalah penjelasan dari Multi Jackpot www.vodkapoker88.com terima kasih dan selamat bermain salam hoki dari kami

Texas Poker Jackpot Winner

TOP SUPER ROYAL FLUSH
No.TanggalNamaPriceWin
120/02 18:21DINDA_ASSuper Royal flush3,000,000
220/02 16:46FARID_04Super Royal flush15,000,000
320/02 15:36SEKE99Super Royal flush6,000,000
420/02 15:15RAMSES22Super Royal flush30,000,000
520/02 04:45PASETO34Super Royal flush60,000,000
TOP ROYAL FLUSH
No.TanggalNamaPriceWin
120/02 20:42FOWERFULLRoyal flush5,000,000
220/02 20:39PEMPEK5758Royal flush2,000,000
320/02 20:34ASDFDS12Royal flush5,000,000
420/02 20:28BUNDA60Royal flush2,000,000
520/02 20:19NYAIASNI12Royal flush10,000,000
TOP STRAIGHT FLUSH
No.TanggalNamaPriceWin
120/02 20:42DOYAN_____Straight Flush600,000
220/02 20:42ANAK3MASStraight Flush600,000
320/02 20:41KAKISSStraight Flush240,000
420/02 20:39L0B0K166Straight Flush120,000
520/02 20:39MHI10644Straight Flush240,000
LATEST JACKPOT
No.TanggalNamaPriceWin
120/02 20:44MINCEK007Full House2,000
220/02 20:44GUSTRI98Full House2,000
320/02 20:44MADUROCKFull House1,000
420/02 20:44L4D0R4C4Four Of A Kind125,000
520/02 20:44GA_M4STERFour Of A Kind25,000
620/02 20:44MV59547Four Of A Kind12,500
720/02 20:44JEBLES123Full House20,000
820/02 20:44EVO57Full House10,000
920/02 20:44YAKUZA_27Full House10,000
1020/02 20:44NOWEL66Full House1,000
1120/02 20:44PARADEP88Full House1,000
1220/02 20:44FUBKXD368OFull House1,000
1320/02 20:44SHANUM21Full House5,000
1420/02 20:44HGDDHJFull House2,000
1520/02 20:44JARWO2112Full House2,000
1620/02 20:44EDYLINAFull House1,000
1720/02 20:44S96WPCHAN84Full House20,000
1820/02 20:44OMMADUREHFour Of A Kind50,000
1920/02 20:44JXFT1E9798Four Of A Kind50,000
2020/02 20:44INDIT44Full House5,000
2120/02 20:44KEUDE2Four Of A Kind125,000
2220/02 20:44ASRIANSYAHFull House5,000
2320/02 20:44JEPRIOFull House10,000
2420/02 20:44KALDON99Full House10,000
2520/02 20:44ARMAYA25Full House5,000
2620/02 20:44WDBOYS1Full House1,000
2720/02 20:44S2804Full House2,000
2820/02 20:44KORTINALAFull House2,000
2920/02 20:44KUR4P4N4Full House10,000
3020/02 20:44UNGUL99Full House5,000
3120/02 20:44FAYBELLAFull House5,000
3220/02 20:44SILVIYONO1Full House500
3320/02 20:44WOLAY999Full House5,000
3420/02 20:44NAONTUH99Full House2,000
3520/02 20:44BLACKTECKFour Of A Kind125,000
3620/02 20:43ISEPTEHFull House5,000
3720/02 20:43HATE22Full House5,000
3820/02 20:43B11NC4Full House1,000
3920/02 20:43AKALEFull House500
4020/02 20:43D642283CFour Of A Kind250,000
4120/02 20:43TEMPEWUDHOFull House1,000
4220/02 20:43SURMAFull House5,000
4320/02 20:43JOLEMBUNGFour Of A Kind500,000
4420/02 20:43JI7SO0JSFull House2,000
4520/02 20:43IPAH69Full House5,000
4620/02 20:43VENIEEFull House2,000
4720/02 20:43DITOUYEE48Full House2,000
4820/02 20:43THO6666Full House5,000
4920/02 20:43T4DPOP79Full House2,000
5020/02 20:43JS69Full House20,000

Domino Multi Jackpot System

Ikutilah global jackpot yang tersedia di system kami, dengan system jackpot terbaru dan pertama di indonesia, anda dapat membeli jackpot dengan harga 100 rupiah saja dan menangkan hadiahnya hingga puluhan juta rupiah.

Jackpot bukanlah suatu keharusan untuk dibeli, namun kami memberikan suatu fitur tambahan untuk member tercinta dari www.vodkapoker88.com.

Terdapat tiga pilihan harga jackpot yang bisa anda beli yaitu :100,500 dan 1000 rupiah.

Hadiah dari Multi jackpot system www.vodkapoker88.com

  1. Murni Kecil x 50 harga jackpot yang anda beli.
      (contoh:anda membeli 1000 maka:1000 X 50 = 50.000)
  2. Murni Besar x 50 harga jackpot yang anda beli
      (contoh:anda membeli 1000 maka:1000 X 50 = 50.000)
  3. BALAK x 100 harga jackpot yang anda beli
      (contoh:anda membeli 1000 maka:1000 X 100 = 100.000)
  4. ENAM DEWA x 6666 harga jackpot yang anda beli
      (contoh:anda membeli 1000 maka:1000 X 6666 = 6.666.000)

Demikian adalah penjelasan dari Multi Jackpot www.vodkapoker88.com terima kasih dan selamat bermain salam hoki dari kami

Domino Jackpot Winner

TOP ENAM DEWA
No.TanggalNamaPriceWin
120/02 20:09DAJONNmurni enam666,600
220/02 19:33R4Y4K4Y4murni enam6,666,000
320/02 18:59CEFUmurni enam3,333,000
420/02 18:03M5XJF1D13Umurni enam3,333,000
520/02 16:15SUPRIA574murni enam6,666,000
TOP BALAK
No.TanggalNamaPriceWin
120/02 20:41IZANDbalak100,000
220/02 20:39PRIAPKbalak50,000
320/02 20:35ERISQQbalak10,000
420/02 20:34ZYZYWIWIbalak100,000
520/02 20:31PLGPHYLObalak100,000
LATEST JACKPOT
No.TanggalNamaPriceWin
120/02 20:44Z2I7Z7E6VWmurni besar25,000
220/02 20:44PRIAPKmurni besar25,000
320/02 20:44B3DC9C27murni besar25,000
420/02 20:43WAHYURAMAYmurni besar50,000
520/02 20:42IKHROM909murni kecil25,000
620/02 20:42BAB55E6Dmurni besar50,000
720/02 20:41IZANDbalak100,000
820/02 20:41BEBEC98murni kecil50,000
920/02 20:40SIMAXELAmurni besar5,000
1020/02 20:40FAVE11murni besar50,000
1120/02 20:40FA_JAR_99murni besar25,000
1220/02 20:40DOBBLE37murni kecil50,000
1320/02 20:40RZVNKVNlucky9910,000
1420/02 20:40IRVANSAUCYmurni kecil50,000
1520/02 20:39RIOSELImurni besar5,000
1620/02 20:39PRIAPKbalak50,000
1720/02 20:39LK4DKESIK21murni kecil5,000
1820/02 20:38MUSAROmurni kecil50,000
1920/02 20:38PMAN12345lucky992,500
2020/02 20:38CETENG1234murni besar50,000
2120/02 20:36NURIL96murni kecil50,000
2220/02 20:36GALAU4murni kecil5,000
2320/02 20:36PATTALOLOlucky9910,000
2420/02 20:35ERISQQbalak10,000
2520/02 20:35C4NTR1Kmurni kecil50,000
2620/02 20:35EDWARD1987murni kecil5,000
2720/02 20:35RED4RAmurni besar5,000
2820/02 20:35T3W337murni besar50,000
2920/02 20:34B7C076EBmurni kecil25,000
3020/02 20:34ZYZYWIWIbalak100,000
3120/02 20:34ABIZAR17murni besar25,000
3220/02 20:33BAHTIAR87murni kecil25,000
3320/02 20:33B4NJIRK0murni besar25,000
3420/02 20:33ABIZAR17murni besar25,000
3520/02 20:32KPN72murni besar50,000
3620/02 20:32S4KU4K89murni kecil5,000
3720/02 20:32FAVE11murni kecil50,000
3820/02 20:32DD0N19murni kecil5,000
3920/02 20:32JAHE777777murni besar25,000
4020/02 20:31PLGPHYLObalak100,000
4120/02 20:31HANYA6666murni besar50,000
4220/02 20:31DD0N19murni kecil5,000
4320/02 20:31KATY66murni kecil25,000
4420/02 20:31KHEJEKIKUbalak100,000
4520/02 20:31RAWI383murni kecil25,000
4620/02 20:30BRONIZ15murni besar50,000
4720/02 20:30ZLPAQmurni kecil25,000
4820/02 20:29DANAMON99murni besar50,000
4920/02 20:29SDK99murni kecil50,000
5020/02 20:29B18IRK8869balak50,000

Ceme Multi Jackpot System

Jackpot dilihat dari gabungan kartu pemain dengan kartu bandar. Bandar harus membeli jackpot sebanyak jumlah player yang sedang duduk. Sebagai contoh bila terdapat 3 pemain duduk bermain, dan bandar memutuskan untuk membeli jackpot Rp 1.000, maka pada periode tersebut bandar akan membeli jackpot sebanyak 3xRp1.000 = Rp3.000.

Jackpot bukanlah suatu keharusan untuk dibeli, namun kami memberikan suatu fitur tambahan untuk member tercinta dari www.vodkapoker88.com.

Terdapat tiga pilihan harga jackpot yang bisa anda beli yaitu :100,500 dan 1000 rupiah.

Hadiah dari Multi jackpot system www.vodkapoker88.com

  1. Murni Kecil x 50 harga jackpot yang anda beli.
      (contoh:anda membeli 1000 maka:1000 X 50 = 50.000)
  2. Murni Besar x 50 harga jackpot yang anda beli
      (contoh:anda membeli 1000 maka:1000 X 50 = 50.000)
  3. BALAK x 200 harga jackpot yang anda beli
      (contoh:anda membeli 1000 maka:1000 X 200 = 200.000)
  4. ENAM DEWA x 6666 harga jackpot yang anda beli
      (contoh:anda membeli 1000 maka:1000 X 6666 = 6.666.000)

Demikian adalah penjelasan dari Multi Jackpot www.vodkapoker88.com terima kasih dan selamat bermain salam hoki dari kami

Ceme Jackpot Winner

TOP ENAM DEWA
No.TanggalNamaPriceWin
120/02 20:41ARIINDRA21murni enam3,333,000
220/02 20:41FAJAR041murni enam6,666,000
320/02 20:39D575235Fmurni enam3,333,000
420/02 20:36LB887111murni enam6,666,000
520/02 20:08HJK597665murni enam6,666,000
TOP BALAK
No.TanggalNamaPriceWin
120/02 20:43LUCKYAIDENbalak100,000
220/02 20:43HALILING98balak100,000
320/02 20:43APOIY123balak100,000
420/02 20:42ABOE0610balak20,000
520/02 20:42AJ3N955balak200,000
LATEST JACKPOT
No.TanggalNamaPriceWin
120/02 20:44TAMYEZ99murni besar50,000
220/02 20:44SOPOJARWOHmurni kecil5,000
320/02 20:44MBETOK07murni kecil25,000
420/02 20:44JIBETmurni kecil25,000
520/02 20:44DIPTA276murni besar25,000
620/02 20:44BGUL012murni besar50,000
720/02 20:44DIPTA276murni besar25,000
820/02 20:43PT4DNEMOmurni kecil5,000
920/02 20:43RISMAN87murni besar25,000
1020/02 20:43EWEWI203murni besar50,000
1120/02 20:43TOGEITEMmurni besar25,000
1220/02 20:43LUCKYAIDENbalak100,000
1320/02 20:43HALILING98balak100,000
1420/02 20:43DWIMULYONOmurni besar25,000
1520/02 20:43RUKMA01murni kecil5,000
1620/02 20:43ASY111Kmurni besar25,000
1720/02 20:43IDN007AKmurni besar5,000
1820/02 20:43SOLEHAT79murni kecil50,000
1920/02 20:43APOIY123balak100,000
2020/02 20:42RENDI440murni kecil5,000
2120/02 20:42BERSINAR48murni kecil25,000
2220/02 20:42BONY0K55murni kecil50,000
2320/02 20:42MJ_MJmurni kecil50,000
2420/02 20:42ALVERO89murni kecil50,000
2520/02 20:42ADI7171murni kecil50,000
2620/02 20:42ABOE0610balak20,000
2720/02 20:42AJ3N955balak200,000
2820/02 20:42LEJIbalak20,000
2920/02 20:42RUKMA01murni besar5,000
3020/02 20:42TAMYEZ99murni besar50,000
3120/02 20:42CARRIMODALmurni besar25,000
3220/02 20:42NAURA666murni besar5,000
3320/02 20:42NEV4DAmurni kecil50,000
3420/02 20:42A84A44A9murni kecil50,000
3520/02 20:42SAEEPmurni besar50,000
3620/02 20:42ANYIS10murni kecil25,000
3720/02 20:41BCM23murni besar50,000
3820/02 20:41TENGGETmurni besar5,000
3920/02 20:41KAPU9murni besar50,000
4020/02 20:41MANDALA33murni besar50,000
4120/02 20:41BYZADbalak200,000
4220/02 20:41WIN343murni besar50,000
4320/02 20:41OILINmurni besar50,000
4420/02 20:41ARIINDRA21murni enam3,333,000
4520/02 20:41FAJAR041murni enam6,666,000
4620/02 20:41BENEH98murni kecil25,000
4720/02 20:41KOSONGLAHmurni kecil50,000
4820/02 20:40BENZPOKERbalak20,000
4920/02 20:40Z3SA10balak20,000
5020/02 20:40NEV4DAmurni kecil50,000